| time (UTC) | temp F | wind direction | speed MPH | gust MPH | rain 1hr in | rain 24hr in | rain mn in | humidity % | barometer mb |
| 20260507010504 | 41 | 20 | 9.0 | 0.0 | 0.00 | 0.00 | 0.00 | 100 | 1010.0 |
| 20260507003504 | 41 | 360 | 12.0 | 0.0 | 0.00 | 0.00 | 0.00 | 100 | 1009.0 |
| 20260507000504 | 41 | 10 | 13.0 | 0.0 | 0.00 | 0.00 | 0.00 | 100 | 1009.0 |
| 20260506233503 | 41 | 10 | 10.0 | 0.0 | 0.00 | 0.00 | 0.00 | 100 | 1009.0 |
| 20260506230504 | 41 | 10 | 9.0 | 0.0 | 0.00 | 0.00 | 0.00 | 100 | 1009.0 |
| 20260506223503 | 41 | 30 | 10.0 | 0.0 | 0.00 | 0.00 | 0.00 | 100 | 1009.0 |
| 20260506220504 | 41 | 30 | 10.0 | 0.0 | 0.00 | 0.00 | 0.00 | 100 | 1009.0 |
| 20260506213504 | 41 | 30 | 13.0 | 0.0 | 0.00 | 0.00 | 0.00 | 100 | 1009.0 |
| 20260506210504 | 41 | 40 | 15.0 | 0.0 | 0.00 | 0.00 | 0.00 | 100 | 1009.0 |
| 20260506203503 | 41 | 40 | 17.0 | 0.0 | 0.00 | 0.00 | 0.00 | 100 | 1008.0 |
| 20260506200504 | 41 | 40 | 15.0 | 0.0 | 0.00 | 0.00 | 0.00 | 100 | 1008.0 |
| 20260506193504 | 41 | 30 | 13.0 | 0.0 | 0.00 | 0.00 | 0.00 | 100 | 1008.0 |
| 20260506190504 | 41 | 40 | 17.0 | 0.0 | 0.00 | 0.00 | 0.00 | 100 | 1008.0 |
| 20260506183504 | 41 | 40 | 15.0 | 0.0 | 0.00 | 0.00 | 0.00 | 100 | 1008.0 |
| 20260506180504 | 41 | 40 | 15.0 | 0.0 | 0.00 | 0.00 | 0.00 | 100 | 1007.0 |
| 20260506173503 | 41 | 40 | 17.0 | 0.0 | 0.00 | 0.00 | 0.00 | 100 | 1007.0 |
| 20260506170504 | 41 | 40 | 18.0 | 0.0 | 0.00 | 0.00 | 0.00 | 100 | 1007.0 |
| 20260506163504 | 41 | 40 | 17.0 | 0.0 | 0.00 | 0.00 | 0.00 | 100 | 1007.0 |
| 20260506160503 | 41 | 40 | 18.0 | 0.0 | 0.00 | 0.00 | 0.00 | 100 | 1007.0 |
| 20260506153504 | 41 | 40 | 20.0 | 0.0 | 0.00 | 0.00 | 0.00 | 100 | 1007.0 |
| 20260506150504 | 41 | 50 | 16.0 | 0.0 | 0.00 | 0.00 | 0.00 | 100 | 1007.0 |
| 20260506143504 | 41 | 50 | 15.0 | 0.0 | 0.00 | 0.00 | 0.00 | 100 | 1007.0 |
| 20260506140504 | 41 | 50 | 20.0 | 0.0 | 0.00 | 0.00 | 0.00 | 100 | 1007.0 |
| 20260506133503 | 42 | 50 | 18.0 | 0.0 | 0.00 | 0.00 | 0.00 | 93 | 1007.0 |
| 20260506130504 | 42 | 50 | 20.0 | 0.0 | 0.00 | 0.00 | 0.00 | 86 | 1007.0 |
| 20260506123503 | 42 | 50 | 21.0 | 0.0 | 0.00 | 0.00 | 0.00 | 86 | 1007.0 |
| 20260506120504 | 42 | 40 | 21.0 | 0.0 | 0.00 | 0.00 | 0.00 | 86 | 1007.0 |
| 20260506113503 | 42 | 40 | 18.0 | 0.0 | 0.00 | 0.00 | 0.00 | 86 | 1007.0 |
| 20260506110504 | 42 | 40 | 20.0 | 0.0 | 0.00 | 0.00 | 0.00 | 86 | 1007.0 |
| 20260506103504 | 42 | 40 | 14.0 | 0.0 | 0.00 | 0.00 | 0.00 | 93 | 1007.0 |
| 20260506100504 | 42 | 50 | 14.0 | 0.0 | 0.00 | 0.00 | 0.00 | 93 | 1007.0 |
| 20260506093503 | 44 | 50 | 17.0 | 0.0 | 0.00 | 0.00 | 0.00 | 87 | 1007.0 |
| 20260506090504 | 44 | 60 | 17.0 | 0.0 | 0.00 | 0.00 | 0.00 | 87 | 1007.0 |
| 20260506083503 | 44 | 60 | 16.0 | 0.0 | 0.00 | 0.00 | 0.00 | 87 | 1007.0 |
| 20260506080504 | 44 | 50 | 15.0 | 0.0 | 0.00 | 0.00 | 0.00 | 100 | 1007.0 |
| 20260506073503 | 44 | 50 | 14.0 | 0.0 | 0.00 | 0.00 | 0.00 | 100 | 1007.0 |
| 20260506070504 | 44 | 50 | 12.0 | 0.0 | 0.00 | 0.00 | 0.00 | 100 | 1008.0 |
| 20260506060504 | 44 | 50 | 12.0 | 0.0 | 0.00 | 0.00 | 0.00 | 100 | 1008.0 |
| 20260506050504 | 44 | 50 | 12.0 | 0.0 | 0.00 | 0.00 | 0.00 | 93 | 1008.0 |
| 20260506043503 | 42 | 50 | 12.0 | 0.0 | 0.00 | 0.00 | 0.00 | 100 | 1009.0 |
| 20260506040504 | 42 | 50 | 9.0 | 0.0 | 0.00 | 0.00 | 0.00 | 100 | 1009.0 |
| 20260506033503 | 42 | 40 | 8.0 | 0.0 | 0.00 | 0.00 | 0.00 | 100 | 1009.0 |
| 20260506030504 | 42 | 30 | 6.0 | 0.0 | 0.00 | 0.00 | 0.00 | 100 | 1009.0 |
| 20260506023504 | 42 | 40 | 5.0 | 0.0 | 0.00 | 0.00 | 0.00 | 100 | 1009.0 |
| 20260506020504 | 42 | 40 | 6.0 | 0.0 | 0.00 | 0.00 | 0.00 | 100 | 1009.0 |
| 20260506013503 | 42 | 70 | 6.0 | 0.0 | 0.00 | 0.00 | 0.00 | 100 | 1009.0 |